{"data":{"norad_id":53031,"intl_designator":"2022-076AX","name":"STARLINK-4137","alt_names":[],"object_type":"PAYLOAD","status":"ACTIVE","operator":null,"country":"US","launch_date":"2022-07-07","launch_site_code":"AFETR","launch_vehicle":null,"mission":null,"orbit_class":"UNKNOWN","rcs_meters":null,"size_class":null,"mass_kg":null,"dimensions":null,"purposes":["comms"],"wikipedia_slug":null,"has_3d_model":false,"image_url":null,"decayed_at":null,"tle_current":{"epoch":"2026-05-25T03:05:09.724128Z","epoch_age_seconds":57927,"freshness":"FRESH","line1":"1 53031U 22076AX  26145.12858477  .00000410  00000+0  43824-4 0  9998","line2":"2 53031  53.2133  90.9735 0001291  83.5692 276.5447 15.08839286214664","mean_motion":15.08839286,"eccentricity":0.0001291,"inclination_deg":53.2133,"raan_deg":90.9735,"arg_perigee_deg":83.5692,"mean_anomaly_deg":276.5447,"bstar":4.3824e-5,"rev_number":21466,"period_min":95.437599839908,"perigee_km":538.85247273736,"apogee_km":540.63867001729,"semimajor_km":6917.8825713773,"source":"CELESTRAK","updated_at":"2026-05-25T13:38:17.283391Z"}}}